Location: Clanezzo
(45.7500°N, 9.6000°E)
Time: 14:12:38
(UTC+00:00)

BREEZE-M R/B - Pass Details

Date: 12 May 2021
Orbit: 311 x 4501 km, 49.7° (Epoch: 19 June)

Event Time Altitude Azimuth Distance (km) Brightness Sun altitude
Rises 22:06:35 0° 290° (WNW) 2,038 6.3 -23.9°
Reaches altitude 10° 22:08:18 10° 298° (WNW) 1,260 5.2 -24.0°
Enters shadow 22:09:14 20° 308° (NW) 873 4.4 -24.0°
